ROMMA est une association bénévole à but non lucratif. Votre soutien est indispensable : ADHERER à ROMMA ou FAIRE un DON

Val-d'Arly - (73, Savoie)

Beaufortain (2050 m)   Longitude: 06° 35' 21" E   Latitude: 45° 46' 53" N Station romma n°118
 

Détail journalier du     <<     >>

Température Humidité Vent Dir Rafale Dir. rafale Ensol.
Heure (°C) (%) (km/h) (km/h) (min)
01:00 -0.69723---34---0
02:00 -1.49725---35---0
03:00 -2.19724---39---0
04:00 -2.39620---31---0
05:00 -2.49613---24---0
06:00 -2.49612---18---0
07:00 -2.4966---16---0
08:00 -1.99611---18---20
09:00 -1.79612---21---40
10:00 -1.69712---21---30
11:00 -1.1979---16---10
12:00 -0.4979---19---10
13:00 -0.8979---18---0
14:00 -1.29710---19---0
15:00 -0.39713---26---30
16:00 -1.19710---24---20
17:00 -1.49612---26---0
18:00 -1.69615---31---0
19:00 -1.89617---27---0
20:00 -2.29611---23---0
21:00 -1.89612---23---0
22:00 -1.89614---26---0
23:00 -1.89612---21---0
minuit -2.09610---19---0

Graphique du 05-11-2019

 

Serveur OMMA